Regional Weather Roundup
Issued by NWS

Home | Current Version | Previous Version | Text Only | Print | Product List | Glossary Off
Versions: 1 2 3 4 5 6 7 8 9 10 11 12 13 14 15 16 17 18 19 20 21 22 23 24 25 26 27 28 29 30 31 32 33 34 35 36 37 38 39 40 41 42 43 44 45 46 47 48 49 50

000
ASUS43 KTOP 050759
RWRKS

WEATHER ROUNDUP FOR KANSAS
NATIONAL WEATHER SERVICE GOODLAND KS
300 AM CDT TUE MAY 05 2015

NOTE:  "FAIR" INDICATES FEW OR NO CLOUDS BELOW 12,000 FEET WITH NO
SIGNIFICANT WEATHER AND/OR OBSTRUCTIONS TO VISIBILITY.

KSZ001>006-013>018-027>032-041>047-050900-
NORTHWEST KANSAS

CITY           SKY/WX    TMP DP  RH WIND       PRES   REMARKS
GOODLAND       CLOUDY    50  50 100 NE7       30.05F FOG
HAYS           CLOUDY    59  54  82 E12       30.04F
HILL CITY      LGT RAIN  57  56  96 NE8       30.03F FOG
RUSSELL        CLOUDY    60  60 100 SE9       30.03F
$$

KSZ061>065-074>080-084>089-050900-
SOUTHWEST KANSAS

CITY           SKY/WX    TMP DP  RH WIND       PRES   REMARKS
DODGE CITY     CLOUDY    60  56  86 E13       30.00F
ELKHART          N/A     56  52  87 NE9         N/A
GARDEN CITY    HVY RAIN  56  56 100 E12       30.01F FOG
GREAT BEND     CLOUDY    61  55  82 E8        30.04S
LIBERAL        CLOUDY    61  55  82 NE7       29.99F
$$

KSZ066>073-081>083-090>101-050900-
SOUTHEAST KANSAS

CITY           SKY/WX    TMP DP  RH WIND       PRES   REMARKS
CHANUTE        MOCLDY    61  57  87 SE7       30.08F
COFFEYVILLE    PTCLDY    58  54  86 CALM      30.07F
HUTCHINSON     CLOUDY    63  57  81 E9        30.04F
MEDICINE LODGE   N/A     63  57  81 E6        30.01F
NEWTON         MOCLDY    61  52  72 E5        30.07F
PARSONS        PTCLDY    62  56  80 CALM      30.09F
WICHITA INTL   MOCLDY    65  56  72 SE8       30.04F
WICHITA JABRA  PTCLDY    62  56  80 SE6       30.05F
WINFIELD       CLEAR     62  56  80 SE6       30.06F
$$

KSZ007>012-019>026-033>040-048>060-102>105-050900-
NORTHEAST KANSAS

CITY           SKY/WX    TMP DP  RH WIND       PRES   REMARKS
CONCORDIA      LGT RAIN  60  58  92 SW6       30.06F FOG
EMPORIA        CLOUDY    61  57  87 CALM      30.07F
LAWRENCE       CLOUDY    61  59  93 CALM      30.07F FOG
MANHATTAN      MOCLDY    59  59 100 CALM      30.06F
OLATHE IND     CLOUDY    62  61  96 SE6       30.09F
OLATHE EXE     CLOUDY    62  62 100 SE8       30.08F FOG
SALINA         CLOUDY    62  59  90 E3        30.05F
TOPEKA BILLARD CLOUDY    62  61  96 CALM      30.07F
TOPEKA FORBES  MOCLDY    62  59  90 S5        30.07F
$$


USA.gov is the U.S. government's official web portal to all federal, state and local government web resources and services.